Address 0x71ff02cece8e550624553bcbb52c0249244ea065 1

 

Overview

Balance:
0.2117589074671478 ETH

ETH Value:
$719.06 (@ $3,395.64/ETH)
Txn Hash Method
Block
From
To
Value [Txn Fee]
0x41aa612db041d21ca87054d43bbf27f9be852644cd3fa54c81628b82ce0bec8a0xb391c508729595712024-06-11 15:53:3214 days 1 hr ago0x71ff02cece8e550624553bcbb52c0249244ea065OUT 0xe99d3fe2efcb9ad0b662015ec14b291c1fdec86d0 ETH0.0002759 0.011634
0xcda2ccd1ee081ad31e41ce8e9cac4f4c870c18591968d73f3df2f4a33456b9bb0xb391c508729595592024-06-11 15:53:2014 days 1 hr ago0x71ff02cece8e550624553bcbb52c0249244ea065OUT 0xe99d3fe2efcb9ad0b662015ec14b291c1fdec86d0 ETH0.00028031 0.011015
0x62813f6934b8e84cd5e6e920327ddec5d24886947027ce6528ea4633a2dc72440xb391c508729595492024-06-11 15:53:0714 days 1 hr ago0x71ff02cece8e550624553bcbb52c0249244ea065OUT 0xe99d3fe2efcb9ad0b662015ec14b291c1fdec86d0 ETH0.00025894 0.010099
0xb82a4fe296d4851e84e8dfbf42d908bfc948b1eb75d238b9d87e443c7a42e1b20xb391c508729559852024-06-11 15:23:5514 days 2 hrs ago0x71ff02cece8e550624553bcbb52c0249244ea065OUT 0xe99d3fe2efcb9ad0b662015ec14b291c1fdec86d0 ETH0.000274 0.013733
0x9dfc987d9497856c99e9e4dd29ad81e34390a305ec176c47ed4ba10556985fb40xb391c508729559482024-06-11 15:23:4514 days 2 hrs ago0x71ff02cece8e550624553bcbb52c0249244ea065OUT 0xe99d3fe2efcb9ad0b662015ec14b291c1fdec86d0 ETH0.00034844 0.014214
0xfa716f626d76684da1827c904a3f60fe60b3cf0d01312e3bb7a2e1fbd9a56f540xb391c508729559312024-06-11 15:23:3414 days 2 hrs ago0x71ff02cece8e550624553bcbb52c0249244ea065OUT 0xe99d3fe2efcb9ad0b662015ec14b291c1fdec86d0 ETH0.00033462 0.013624
0xf3ef7dfa6d4a9e7bb0eb2d506e1196f130227340a9faf3a1ff70f88c7f64e5e20xb391c508729558912024-06-11 15:23:2414 days 2 hrs ago0x71ff02cece8e550624553bcbb52c0249244ea065OUT 0xe99d3fe2efcb9ad0b662015ec14b291c1fdec86d0 ETH0.000361 0.014271
0x7ccb5b02709e4acfe14f5db58e0d5a1b4406d884b30643892f17b4a5d6572f660xb391c508729558722024-06-11 15:23:1314 days 2 hrs ago0x71ff02cece8e550624553bcbb52c0249244ea065OUT 0xe99d3fe2efcb9ad0b662015ec14b291c1fdec86d0 ETH0.00034942 0.013816
0x04eb5fa1c462c1768e662c71e1089fd173aeca12f26373dc9e90cc09d73e45120xb391c508729558362024-06-11 15:23:0314 days 2 hrs ago0x71ff02cece8e550624553bcbb52c0249244ea065OUT 0xe99d3fe2efcb9ad0b662015ec14b291c1fdec86d0 ETH0.00035855 0.014187
0x94c1608ffdc17326d67913a38e644b6352a01030ac241b844bd2c6789e67ce3d0xb391c508729558092024-06-11 15:22:5314 days 2 hrs ago0x71ff02cece8e550624553bcbb52c0249244ea065OUT 0xe99d3fe2efcb9ad0b662015ec14b291c1fdec86d0 ETH0.00035604 0.014082
0x4a1ab208085e6f1e2a55ae5e72ac5e98ba4d5bddaf789f8d203e6d1626deb40b0xb391c508729557822024-06-11 15:22:4314 days 2 hrs ago0x71ff02cece8e550624553bcbb52c0249244ea065OUT 0xe99d3fe2efcb9ad0b662015ec14b291c1fdec86d0 ETH0.00034726 0.013726
0x968adbdb6e5f6f0e37f3d5b5d065d1a75bafe01b5e23c546d3dc440ec54b4e660xb391c508729557442024-06-11 15:22:3214 days 2 hrs ago0x71ff02cece8e550624553bcbb52c0249244ea065OUT 0xe99d3fe2efcb9ad0b662015ec14b291c1fdec86d0 ETH0.00036074 0.014299
0x7bd4932e9d40150d32fbbf4b04e60946262f036ef7a2faeac653b08cfdea9e600xb391c508729557182024-06-11 15:22:2214 days 2 hrs ago0x71ff02cece8e550624553bcbb52c0249244ea065OUT 0xe99d3fe2efcb9ad0b662015ec14b291c1fdec86d0 ETH0.00036001 0.014258
0x47e11cf71162c08938f594d8f6b92b89988c25406ef6fec3211557f4e80958840xb391c508729556832024-06-11 15:22:0914 days 2 hrs ago0x71ff02cece8e550624553bcbb52c0249244ea065OUT 0xe99d3fe2efcb9ad0b662015ec14b291c1fdec86d0 ETH0.00035968 0.014195
0x6a40331bba310377f20b3552ed05b10ef329fec268c1c78acd80a87b175c14dc0xb391c508729556542024-06-11 15:21:5914 days 2 hrs ago0x71ff02cece8e550624553bcbb52c0249244ea065OUT 0xe99d3fe2efcb9ad0b662015ec14b291c1fdec86d0 ETH0.00035413 0.014009
0x14a5391a7710f7ae6934879975792eadee6427af73949a549321f6f74525fbfa0xb391c508729556172024-06-11 15:21:4614 days 2 hrs ago0x71ff02cece8e550624553bcbb52c0249244ea065OUT 0xe99d3fe2efcb9ad0b662015ec14b291c1fdec86d0 ETH0.00036319 0.014387
0xde1b04bc20df5b1968c1b721c4e4bdaa5a9c37b3db619a9eceb8a9b3dfaec5a60xb391c508729555892024-06-11 15:21:3514 days 2 hrs ago0x71ff02cece8e550624553bcbb52c0249244ea065OUT 0xe99d3fe2efcb9ad0b662015ec14b291c1fdec86d0 ETH0.00036256 0.014369
0x03ceed2afd8824c5eaa8deea7ba96ad30bd6bafafd8f9fc0e6a15072238412840xb391c508729555702024-06-11 15:21:2514 days 2 hrs ago0x71ff02cece8e550624553bcbb52c0249244ea065OUT 0xe99d3fe2efcb9ad0b662015ec14b291c1fdec86d0 ETH0.00035137 0.013896
0xd549ad63de325ceaec8c1870523882dc456a0ec2b4e954a9bbe47aadcabdcd6a0xb391c508729555322024-06-11 15:21:1414 days 2 hrs ago0x71ff02cece8e550624553bcbb52c0249244ea065OUT 0xe99d3fe2efcb9ad0b662015ec14b291c1fdec86d0 ETH0.00035357 0.013964
0xeca65caf4d5be11f93878a24ca79eb74064b1093a194d4ae9453c54379f76ff40xb391c508729554962024-06-11 15:21:0414 days 2 hrs ago0x71ff02cece8e550624553bcbb52c0249244ea065OUT 0xe99d3fe2efcb9ad0b662015ec14b291c1fdec86d0 ETH0.00036456 0.014443
0x89bf6f1f29c9e3bbdf2b38bf42807938a36429cbea81db950bdb553c60bc44cf0xb391c508729554682024-06-11 15:20:5114 days 2 hrs ago0x71ff02cece8e550624553bcbb52c0249244ea065OUT 0xe99d3fe2efcb9ad0b662015ec14b291c1fdec86d0 ETH0.00035359 0.013984
0x75c0c39f8a4f2f5b729859256cee7b94849b926b81b0351b74889c1b1bcbafaa0xb391c508729554302024-06-11 15:20:3814 days 2 hrs ago0x71ff02cece8e550624553bcbb52c0249244ea065OUT 0xe99d3fe2efcb9ad0b662015ec14b291c1fdec86d0 ETH0.00036353 0.01441
0x05445e17564c906d4e05816bbe3ed92a66ff66ebf02a28ccec00e54f515078630xb391c508729553922024-06-11 15:20:2714 days 2 hrs ago0x71ff02cece8e550624553bcbb52c0249244ea065OUT 0xe99d3fe2efcb9ad0b662015ec14b291c1fdec86d0 ETH0.00037546 0.014935
0x8c6149913c20e92332a924071c3068b7280e537e897cb6dd79b1fc50cc89537e0xb391c508729553642024-06-11 15:20:1614 days 2 hrs ago0x71ff02cece8e550624553bcbb52c0249244ea065OUT 0xe99d3fe2efcb9ad0b662015ec14b291c1fdec86d0 ETH0.00035809 0.014164
0x5f113f652a1d6504353cdf070d9eb775398fdb7c1efbe70059953089649f267a0xb391c508729553342024-06-11 15:20:0414 days 2 hrs ago0x71ff02cece8e550624553bcbb52c0249244ea065OUT 0xe99d3fe2efcb9ad0b662015ec14b291c1fdec86d0 ETH0.00035697 0.014103
[ Download CSV Export 
Latest 5 internal transactions
Parent Txn Hash Block From To Value
0x6ad3076d77a77fa659b6c7e724374b3a01a830fd80d7e6018b114a13e33fef60521980452024-02-27 4:07:39119 days 13 hrs ago Sushiswap : Route Processor 40x71ff02cece8e550624553bcbb52c0249244ea0650.038522008313822183 ETH
0x8114856223cd800094c450ddf2e22a920009ed6a02e2cfbfd556240e06808ff7518836702024-02-26 6:07:27120 days 11 hrs ago 0xb45e53277a7e0f1d35f2a77160e91e25507f17630x71ff02cece8e550624553bcbb52c0249244ea0650.019200728329357798 ETH
0xffeb3018e2e1cb570c9c2e612322354e12ae09a7f4bb74fa3afa0a244f3a9cb1515698382024-02-25 8:12:45121 days 9 hrs ago 0xb45e53277a7e0f1d35f2a77160e91e25507f17630x71ff02cece8e550624553bcbb52c0249244ea0650.01151757216144145 ETH
0xfa12fb7ae43fe429d5e93b0e2c7a9bcb9615014b2c1d539f543827534955fc64515570012024-02-25 7:18:24121 days 10 hrs ago 0xb45e53277a7e0f1d35f2a77160e91e25507f17630x71ff02cece8e550624553bcbb52c0249244ea0650.042015823515103939 ETH
0xb9dd35a20da7da540e63647de80623e3a89e4d62a3c7f26e75c61e80eec8df7d514505942024-02-24 23:53:07121 days 17 hrs ago 0xb45e53277a7e0f1d35f2a77160e91e25507f17630x71ff02cece8e550624553bcbb52c0249244ea0650.011900579184621989 ETH
[ Download CSV Export 
Loading

Contract Name:
0 ETH

Compiler Version
0

Optimization Enabled:
0 ETH

Other Settings:
-NA-
Block Transaction Gas Used Reward
Age Block Fee Address BC Fee Address Voting Power Jailed Incoming
Block Uncle Number Difficulty Gas Used Reward
Loading
Make sure to use the "Vote Down" button for any spammy posts, and the "Vote Up" for interesting conversations.